N114HF KSQL-

Flight info

Callsign N114HF
Flight time N/A
Altitude VFR
Route
Aircraft BE36/L-VGD/C

Departure

Time 2026-04-24 01:00
Airport San Carlos Airport (KSQL)

Arrival

Time N/A
Airport -
Time Latitude Longitude Altitude Speed Heading
2026-04-24 01:00 37.82782 -122.44965 1989 ft 171 kts 68°
2026-04-24 01:00 37.83004 -122.43480 1987 ft 172 kts 85°
2026-04-24 01:00 37.82612 -122.42052 1986 ft 173 kts 124°
2026-04-24 01:00 37.81935 -122.40802 1990 ft 173 kts 124°
2026-04-24 01:01 37.81254 -122.39544 1985 ft 173 kts 124°
2026-04-24 01:01 37.80573 -122.38294 1984 ft 174 kts 124°
2026-04-24 01:01 37.79872 -122.37019 1988 ft 174 kts 124°
2026-04-24 01:01 37.79182 -122.35767 1991 ft 174 kts 124°
2026-04-24 01:02 37.78490 -122.34514 1990 ft 174 kts 124°
2026-04-24 01:02 37.77972 -122.33131 1953 ft 176 kts 102°
2026-04-24 01:02 37.77898 -122.31138 2009 ft 170 kts 71°
2026-04-24 01:02 37.78234 -122.30225 1857 ft 177 kts 59°
2026-04-24 01:03 37.78665 -122.28758 1849 ft 175 kts 74°
2026-04-24 01:03 37.78917 -122.27268 1848 ft 176 kts 84°
2026-04-24 01:03 37.78571 -122.25860 1757 ft 167 kts 118°
2026-04-24 01:03 37.78096 -122.24611 1688 ft 144 kts 115°
2026-04-24 01:04 37.77705 -122.23504 1588 ft 140 kts 115°
2026-04-24 01:04 37.77272 -122.22375 1458 ft 145 kts 120°
2026-04-24 01:04 37.76756 -122.21270 1322 ft 150 kts 124°
2026-04-24 01:04 37.76165 -122.20161 1140 ft 154 kts 126°
2026-04-24 01:05 37.75561 -122.19054 1011 ft 150 kts 127°
2026-04-24 01:05 37.74946 -122.18044 970 ft 142 kts 131°
2026-04-24 01:05 37.74307 -122.17159 991 ft 130 kts 136°
2026-04-24 01:05 37.73581 -122.16591 924 ft 122 kts 181°
2026-04-24 01:06 37.72724 -122.16718 772 ft 125 kts 194°
2026-04-24 01:06 37.72057 -122.17040 759 ft 85 kts 238°
2026-04-24 01:06 37.71906 -122.17731 651 ft 86 kts 265°
2026-04-24 01:06 37.71925 -122.18501 526 ft 91 kts 275°
2026-04-24 01:07 37.72092 -122.19282 362 ft 93 kts 288°
2026-04-24 01:07 37.72345 -122.20048 157 ft 93 kts 289°
2026-04-24 01:07 37.72574 -122.20749 18 ft 73 kts 288°
2026-04-24 01:07 37.72738 -122.21255 9 ft 53 kts 288°
2026-04-24 01:08 37.72827 -122.21539 9 ft 31 kts 295°
2026-04-24 01:08 37.72910 -122.21793 8 ft 28 kts 292°
2026-04-24 01:08 37.72999 -122.21872 8 ft 15 kts 65°
2026-04-24 01:08 37.73008 -122.21845 8 ft 0 kts 76°
2026-04-24 01:09 37.73008 -122.21844 8 ft 0 kts 76°
2026-04-24 01:09 37.72986 -122.21707 8 ft 29 kts 111°
2026-04-24 01:09 37.72897 -122.21434 9 ft 20 kts 109°
2026-04-24 01:09 37.72946 -122.21291 9 ft 17 kts 70°
2026-04-24 01:10 37.72980 -122.21171 9 ft 0 kts 107°